FALCON 9 DEB (48413 NORAD) Tracking and Keplerian Element Data

This shows tracking and keplerian element data for the satellite.

Feedback or suggestion? Click here.




ElementValue
Catalog48413
NameFALCON 9 DEB
Epoch Orbit530
Epoch Day157.64888723
Epoch Year2021
RAAN232.5292
Inclination53.0421
Eccentricity0.0007337
Argument of Perigee292.5849
Mean Anonmoly67.4425
Mean Motion16.49947782
Decay Rate0.11299318
L11 48413U 21038BN 21157.64888723 .11299318 12686-4 12392-3 0 9997
L22 48413 53.0421 232.5292 0007337 292.5849 67.4425 16.49947782 5304

Live tracking and technical data element details for FALCON 9 DEB (NORAD 48413). FALCON 9 DEB can be tracked NOW for your location showing map with azimuth and elevation plus other details from your city location.

Track the satellite on the map from your city or location and see movement details for azimuth, elevation, latitude, longitude, range, height, and movement on the map or in text.







IsCatalogInMostPopularTable: catalog: 48413, numindb: 28
Update: records affected: 1



GetName: 48413 FALCON 9 DEB

Hit Count: updated at: Wed, 04 Aug 2021 00:07:38 GMT